Regional Weather Roundup
Issued by NWS

Home | Current Version | Previous Version | Text Only | Print | Product List | Glossary On
Versions: 1 2 3 4 5 6 7 8 9 10 11 12 13 14 15 16 17 18 19 20 21 22 23 24 25 26 27 28 29 30 31 32 33 34 35 36 37 38 39 40 41 42 43 44 45 46 47 48 49 50
000
ASUS45 KBOU 261407
RWRCO

WEATHER ROUNDUP FOR COLORADO
NATIONAL WEATHER SERVICE DENVER/BOULDER CO
800 AM MDT SAT JUL 26 2014

NOTE: "FAIR" INDICATES FEW OR NO CLOUDS BELOW 12000 FEET WITH NO
SIGNIFICANT WEATHER AND/OR OBSTRUCTIONS TO VISIBILITY.

COZ001>005-013-030-031-261500-
...NORTHWEST COLORADO...

CITY           SKY/WX    TMP DP  RH WIND       PRES   REMARKS
CRAIG          PTSUNNY   55  55 100 CALM      30.26R
HAYDEN         PTSUNNY   61  46  59 E9        30.29R
MEEKER         MOSUNNY   62  52  69 CALM      30.28R
MOUNT WERNER   NOT AVBL
STEAMBOAT SPGS PTSUNNY   57  50  78 SE5       30.32R
WALDEN         PTSUNNY   55  46  71 SE3       30.40R
$$

COZ006>008-011-261500-
...WEST CENTRAL VALLEYS...

CITY           SKY/WX    TMP DP  RH WIND       PRES   REMARKS
GRAND JUNCTION SUNNY     71  53  52 SE10      30.17R
MONTROSE       SUNNY     69  51  52 CALM      30.26R
EAGLE          MOSUNNY   55  50  82 CALM      30.36R
RIFLE          MOSUNNY   66  49  54 W5        30.24R
DELTA          SUNNY     70  51  49 CALM      30.23R
NUCLA          NOT AVBL
$$

COZ017>023-064>068-261500-
...SOUTHWEST COLORADO...

CITY           SKY/WX    TMP DP  RH WIND       PRES   REMARKS
DURANGO        MOSUNNY   65  46  50 CALM      30.31R
CORTEZ         SUNNY     64  48  56 NE5       30.26R
PAGOSA SPRINGS MOSUNNY   65  47  51 CALM      30.39R
TELLURIDE      SUNNY     59  46  63 CALM      30.51R
WOLF CREEK PAS NOT AVBL
$$

COZ009-010-012-014-032>034-037-058>063-261500-
...CENTRAL COLORADO...

CITY           SKY/WX    TMP DP  RH WIND       PRES   REMARKS
ASPEN          PTSUNNY   62  46  55 E3        30.39R
BUENA VISTA    MOSUNNY   57  48  71 W5        30.42S
COPPER MTN     PTSUNNY   55  37  50 SW6       30.72R
BERTHOUD PASS  CLOUDY    46  32  57 NW10      30.75R
COTTONWOOD PAS SUNNY     64  39  39 CALM      30.55R
GUNNISON       SUNNY     52  46  82 CALM      30.47R
KREMMLING      PTSUNNY   52  46  82 CALM      30.41R
LEADVILLE      MOSUNNY   51  47  86 NW3       30.55R
MONARCH PASS   MOSUNNY   52  37  58 W8        30.82R
SALIDA         SUNNY    N/A N/A N/A NW6       30.47R
SUNLIGHT       CLOUDY    57  45  62 CALM      30.62R
WILKERSON PASS NOT AVBL
$$

COZ069>075-261500-
...SAN LUIS VALLEY/SANGRE DE CRISTO MOUNTAINS...

CITY           SKY/WX    TMP DP  RH WIND       PRES   REMARKS
ALAMOSA        MOSUNNY   60  52  74 CALM      30.39R
LA VETA PASS   SUNNY     61  41  48 CALM      30.57R
SAGUACHE       MOSUNNY   63  48  59 NW9       30.41R
$$

COZ035-036-038>040-261500-
...NORTHERN COLORADO FRONT RANGE...

CITY           SKY/WX    TMP DP  RH WIND       PRES   REMARKS
DENVER INTL AP PTSUNNY   78  47  33 SW7       30.14R
DMNS CITY PARK   N/A     71  51  49 SW6       30.15R
AURORA         PTSUNNY   73  54  51 S6        30.17R
FRONT RANGE AP NOT AVBL
ERIE MUNI ARPT PTSUNNY   73  53  49 N5        30.13R
BOULDER MUN AP PTSUNNY   72  50  46 N5        30.14R
CENTENNIAL     MOSUNNY   77  49  37 SW10      30.19R
BROOMFIELD     NOT AVBL
FORT COLLINS   PTSUNNY   66  55  68 SE5       30.15R
LONGMONT       PTSUNNY   73  55  53 CALM      30.15R
$$

COZ041-046-047-076>085-087-088-261500-
...PIKES PEAK/PALMER DIVIDE AND SOUTHERN FOOTHILLS...

CITY           SKY/WX    TMP DP  RH WIND       PRES   REMARKS
COLO. SPRINGS  MOSUNNY   76  46  34 NW10      30.22R
A. F. ACADEMY  SUNNY     68  49  51 N5        30.25R
ELLICOTT       SUNNY     73  50  44 CALM      30.20R
FALCON         SUNNY     76  44  32 NW6       30.28R
FORT CARSON    SUNNY     74  51  44 NW6       30.19R
LIMON          SUNNY     74  51  44 W6        30.15R
MONUMENT HILL  NOT AVBL
TRINIDAD       SUNNY     73  51  46 W14       30.18S
$$

COZ042>045-048>051-090-091-261500-
...NORTHEAST COLORADO...

CITY           SKY/WX    TMP DP  RH WIND       PRES   REMARKS
GREELEY ARPT   MOSUNNY   64  55  72 E3        30.13R
AKRON          SUNNY     73  54  51 NW14      30.10R
BURLINGTON     SUNNY     78  61  55 W10       30.05R
WRAY             N/A     78  55  45 W10       30.01R
STERLING       SUNNY     79  55  44 N10       30.06R
HOLYOKE        SUNNY     79  55  44 NW16G22   30.01R
FORT MORGAN    SUNNY     74  50  42 N13       30.11R
$$

COZ086-089-092>099-261500-
...SOUTHEAST COLORADO...

CITY           SKY/WX    TMP DP  RH WIND       PRES   REMARKS
PUEBLO         SUNNY     71  58  63 W5        30.11R
LA JUNTA       SUNNY     72  60  66 S7        30.07R
LAMAR          SUNNY     76  62  62 W10       30.01R
SPRINGFIELD      N/A     80  57  45 NW9       30.06R
$$



USA.gov is the U.S. government's official web portal to all federal, state and local government web resources and services.